Oklahoma City Wiley Post, OK

12:18 PM CDT on April 22, 2018 (GMT -0500)
Wiley Post

Weather History for KPWA - January, 2013

Change the Weather History Date:

Sunday, January 13, 2013

  Actual Average Record
Temperature  
Mean Temperature 24 °F -  
Max Temperature 30 °F 42 °F 77 °F (1960)
Min Temperature 19 °F 22 °F -1 °F (1963)
Degree Days  
Heating Degree Days 40    
Moisture  
Dew Point 9 °F    
Average Humidity 55    
Maximum Humidity 66    
Minimum Humidity 40    
Precipitation  
Precipitation 0.00 in - - ()
Sea Level Pressure  
Sea Level Pressure 30.28 in    
Wind  
Wind Speed 15 mph (North)    
Max Wind Speed 22 mph    
Max Gust Speed 28 mph    
Visibility 10 miles    
Events      
Averages and records for this station are not official NWS values.
T = Trace of Precipitation, MM = Missing Value Source: NWS Daily Summary

Daily Weather History Graph

Daily Weather History Graph

Search for Another Location

Airport or City:

Astronomy

Jan. 13, 2013 Rise Set
Actual Time 7:39 AM CST 5:39 PM CST
Civil Twilight 7:11 AM CST 6:07 PM CST
Nautical Twilight 6:40 AM CST 6:38 PM CST
Astronomical Twilight 6:09 AM CST 7:09 PM CST
Moon 8:45 AM CST (1/13) 8:12 PM CST (1/13)
Length of Visible Light 10h 55m
Length of Day
9h 59m
Waxing Crescent, 5% of the Moon is Illuminated
Jan 13
Waxing Crescent
Jan 18
First Quarter
Jan 26
Full
Feb 3
Last Quarter
Feb 10
New

Hourly Weather History & Observations

Time (CST) Temp. Windchill Dew Point Humidity Pressure Visibility Wind Dir Wind Speed Gust Speed Precip Events Conditions
12:53 AM 25.0 °F 12.2 °F 12.0 °F 58% 30.11 in 10.0 mi North 16.1 mph - N/A   Clear
1:53 AM 24.1 °F 9.8 °F 12.0 °F 60% 30.14 in 10.0 mi North 19.6 mph 25.3 mph N/A   Clear
2:53 AM 21.9 °F 7.8 °F 10.9 °F 63% 30.16 in 10.0 mi North 17.3 mph 23.0 mph N/A   Clear
3:53 AM 21.9 °F 8.2 °F 12.0 °F 66% 30.17 in 10.0 mi North 16.1 mph 23.0 mph N/A   Clear
4:53 AM 21.9 °F 9.2 °F 10.0 °F 60% 30.19 in 10.0 mi North 13.8 mph 24.2 mph N/A   Clear
5:53 AM 21.0 °F 6.6 °F 8.1 °F 57% 30.20 in 10.0 mi North 17.3 mph - N/A   Clear
6:53 AM 19.9 °F 6.7 °F 9.0 °F 62% 30.23 in 10.0 mi North 13.8 mph - N/A   Clear
7:53 AM 19.9 °F 7.3 °F 9.0 °F 62% 30.27 in 10.0 mi North 12.7 mph - N/A   Clear
8:53 AM 21.0 °F 5.7 °F 8.1 °F 57% 30.32 in 10.0 mi North 19.6 mph 25.3 mph N/A   Clear
9:53 AM 21.9 °F 6.2 °F 7.0 °F 53% 30.36 in 10.0 mi NNW 21.9 mph 27.6 mph N/A   Clear
10:53 AM 23.0 °F 8.7 °F 8.1 °F 53% 30.36 in 10.0 mi North 18.4 mph - N/A   Clear
11:53 AM 26.1 °F 14.5 °F 8.1 °F 47% 30.33 in 10.0 mi North 13.8 mph 20.7 mph N/A   Clear
12:53 PM 27.0 °F 14.3 °F 9.0 °F 47% 30.30 in 10.0 mi North 17.3 mph - N/A   Clear
1:53 PM 28.9 °F 17.7 °F 9.0 °F 43% 30.29 in 10.0 mi North 15.0 mph - N/A   Clear
2:53 PM 30.0 °F 20.5 °F 9.0 °F 41% 30.28 in 10.0 mi North 11.5 mph - N/A   Clear
3:53 PM 30.0 °F 19.1 °F 8.1 °F 40% 30.29 in 10.0 mi North 15.0 mph - N/A   Clear
4:53 PM 28.9 °F 20.4 °F 9.0 °F 43% 30.31 in 10.0 mi NNE 9.2 mph - N/A   Clear
5:53 PM 25.0 °F 16.3 °F 9.0 °F 51% 30.33 in 10.0 mi North 8.1 mph - N/A   Clear
6:53 PM 23.0 °F 13.9 °F 9.0 °F 55% 30.33 in 10.0 mi North 8.1 mph - N/A   Clear
7:53 PM 23.0 °F 13.9 °F 10.0 °F 58% 30.33 in 10.0 mi North 8.1 mph - N/A   Clear
8:53 PM 21.9 °F 11.7 °F 9.0 °F 58% 30.32 in 10.0 mi NNE 9.2 mph - N/A   Clear
9:53 PM 21.9 °F 13.4 °F 9.0 °F 58% 30.35 in 10.0 mi NE 6.9 mph - N/A   Clear
10:53 PM 21.0 °F 12.4 °F 8.1 °F 57% 30.38 in 10.0 mi NNE 6.9 mph - N/A   Clear
11:53 PM 19.9 °F 12.1 °F 8.1 °F 60% 30.41 in 10.0 mi North 5.8 mph - N/A   Clear